Yakima, WA
on Friday, November 23, 2012

Friday
Previous Day Next Day
Daily Summary
 ActualAverageRecord
Temperature
Mean Temperature °F 34°F  
Max Temperature 44°F 44°F 69°F (1959)
Min Temperature 31°F 25°F -13°F (1985)
Degree Days
Heating Degree Days 27 31  
Month to date heating degree days 500 606  
Since 1 July heating degree days 1037 1310  
Cooling Degree Days 0 0  
Month to date cooling degree days 0 0  
Year to date cooling degree days 667 472  
Moisture
Dew Point 33°F   
Average Humidity 77    
Maximum Humidity 92    
Minimum Humidity 62    
Precipitation
Precipitation 0.02 in 0.04 in 0.76 in (1949)
Month to date precipitation 0.58 0.76  
Year to date precipitation 7.11 6.43  
Snow
Snow 0.00 in 0.20 in 3.20 in (1996)
Month to date snowfall 0.8 2.0  
Year to date snowfall 22.3 10.7  
Since 1 July snowfall 0.8 2.1  
Snow Depth 0.00 in   
Wind
Wind Speed 0 mph   
Max Wind Speed 7 mph   
Max Gust Speed 12 mph   
Visibility 10 miles   
Events Rain   

Key: T is trace of precipitation, MM is missing value
Source: NWS Daily Summary
Time(PST)TemperatureDew PointHumidity Pressure Visibility Wind DirectionWind SpeedGust SpeedPrecipitationEvents Conditions
12:53 AM 36.0°F 30.9°F 82% 30.36 in 10.0 miles Calm Calm - N/A   Clear
1:53 AM 34.0°F 30.0°F 85% 30.35 in 10.0 miles Calm Calm - N/A   Clear
2:53 AM 32.0°F 28.0°F 85% 30.35 in 10.0 miles Calm Calm - N/A   Clear
3:53 AM 30.9°F 28.0°F 89% 30.33 in 10.0 miles West 3.5 mph - N/A   Clear
4:53 AM 32.0°F 28.9°F 88% 30.32 in 10.0 miles Calm Calm - N/A   Partly Cloudy
5:53 AM 33.1°F 28.9°F 85% 30.31 in 10.0 miles Calm Calm - N/A   Clear
6:53 AM 32.0°F 28.0°F 85% 30.30 in 10.0 miles Calm Calm - N/A   Clear
7:53 AM 32.0°F 28.9°F 88% 30.30 in 10.0 miles Calm Calm - N/A   Mostly Cloudy
8:53 AM 34.0°F 30.0°F 85% 30.30 in 10.0 miles Calm Calm - N/A   Mostly Cloudy
9:53 AM 37.0°F 30.9°F 79% 30.28 in 10.0 miles Calm Calm - N/A   Mostly Cloudy
10:53 AM 39.9°F 32.0°F 73% 30.26 in 10.0 miles Calm Calm - N/A   Mostly Cloudy
11:53 AM 41.0°F 32.0°F 70% 30.24 in 10.0 miles Calm Calm - N/A   Overcast
12:53 PM 43.0°F 32.0°F 65% 30.19 in 10.0 miles Calm Calm - N/A   Overcast
1:53 PM 44.1°F 32.0°F 63% 30.19 in 10.0 miles Calm Calm - N/A   Overcast
2:53 PM 43.0°F 33.1°F 68% 30.17 in 10.0 miles ESE 3.5 mph - 0.00 in Rain Light Rain
3:53 PM 42.1°F 35.1°F 76% 30.15 in 10.0 miles Calm Calm - 0.00 in Rain Light Rain
4:53 PM 41.0°F 36.0°F 82% 30.14 in 8.0 miles Calm Calm - 0.01 in Rain Light Rain
5:53 PM 39.9°F 37.0°F 89% 30.13 in 10.0 miles Calm Calm - 0.01 in Rain Light Rain
6:53 PM 39.9°F 37.0°F 89% 30.13 in 10.0 miles Calm Calm - 0.00 in   Overcast
7:53 PM 39.9°F 37.0°F 89% 30.12 in 10.0 miles Calm Calm - N/A   Overcast
8:53 PM 39.9°F 37.0°F 89% 30.13 in 8.0 miles Calm Calm - 0.00 in   Overcast
9:53 PM 39.2°F 37.4°F 93% 30.11 in 7.0 miles Calm Calm - N/A   Overcast
10:53 PM 39.9°F 37.0°F 89% 30.12 in 10.0 miles Calm Calm - 0.00 in   Overcast
11:53 PM 43.0°F 37.0°F 80% 30.09 in 10.0 miles ENE 3.5 mph - N/A   Overcast
Moon Phase
Nov. 23 Nov. 28 Dec. 06 Dec. 13 Dec. 20
Sunrise:07:16 AM (PST) Moon Rise:01:50 PM (PST)11/23
Sunset:04:20 PM (PST) Moon Set:02:26 AM (PST)11/23

Copyright © 2014 The Weather Underground, Inc.